Weather Roundup
Issued by NWS

Home | Current Version | Previous Version | Graphics & Text | Print | Product List | Glossary Off
Versions: 1 2 3 4 5 6 7 8 9 10 11 12 13 14 15 16 17 18 19 20 21 22 23 24 25 26 27 28 29 30 31 32 33 34 35 36 37 38 39 40 41 42 43 44 45 46 47 48 49 50

292
NZUS93 KARX 250059
HRRWXR

CURRENT HOURLY OBSERVATIONS ACROSS
MUCH OF THE UPPER MISSISSIPPI VALLEY
NATIONAL WEATHER SERVICE LA CROSSE WI
800 PM CDT SUN JUL 24 2016


...SOUTHEAST MINNESOTA...


CITY           SKY/WX    TMP DP  RH WIND       PRES   REMARKS
ROCHESTER      CLOUDY    75  66  73 W6        29.96S
ROCHESTER/MAYO FAIR      76  65  69 W10       29.95R
WINONA         CLOUDY    77  63  61 W7        29.90S
AUSTIN         CLOUDY    75  64  69 NW8       29.97R
ALBERT LEA     CLOUDY    75  64  69 NW6       29.98R
DODGE CENTER   MOCLDY    75  64  69 W8        29.97R
PRESTON        PTCLDY    73  64  75 NW7       29.96R
OWATONNA       CLOUDY    75  63  64 W6        29.97R
FARIBAULT      CLEAR     75  64  69 W7        29.96S
$$

...ELSEWHERE IN MINNESOTA...


CITY           SKY/WX    TMP DP  RH WIND       PRES   REMARKS
MINNEAPOLIS    PTCLDY    79  62  56 W14       29.93S
INTNL FALLS    MOCLDY    72  59  63 W8        29.84R
DULUTH         MOCLDY    75  60  59 W12       29.88R
RED WING       CLOUDY    81  63  54 NW7       29.89F
REDWOOD FALLS  CLEAR     78  65  63 W6        29.98R
MANKATO        CLEAR     75  63  64 NW9       29.98R
WORTHINGTON    PTCLDY    75  66  73 NW6       30.04S
FAIRMONT       MOCLDY    75  54  46 W8        30.00R
$$

...SOUTHWEST WISCONSIN...


CITY           SKY/WX    TMP DP  RH WIND       PRES   REMARKS
LA CROSSE      MOCLDY    81  66  60 NW13      29.89S
PRAIRIE DU CHI PTCLDY    80  65  60 W7        29.89F
BOSCOBEL       MOCLDY    80  68  66 SW3       29.89F
LONE ROCK      NOT AVBL
PLATTEVILLE    PTCLDY    77  69  78 W5        29.93R
FORT MC COY    CLOUDY    79  66  64 NW5       29.90F
MAUSTON-NEW LI CLEAR     77  68  73 W5        29.87F
VIROQUA        FAIR      76  65  68 NW5       29.91F
WIS DELLS      NOT AVBL
$$

...ELSEWHERE IN WISCONSIN...


CITY           SKY/WX    TMP DP  RH WIND       PRES   REMARKS
MILWAUKEE      CLOUDY    91  76  61 W16G25    29.84R HX 103
MADISON        MOCLDY    82  66  58 VRB5      29.89R
GREEN BAY      PTCLDY    79  69  71 W8        29.82R
EAU CLAIRE     NOT AVBL
BLACK RVR FLS  FAIR      78  64  60 W5        29.88F
MEDFORD        CLEAR     74  62  66 W7        29.90S
WAUSAU         CLEAR     78  63  59 W13       29.86S
WIS RAPIDS     CLEAR     78  63  59 NW8       29.88F
MARSHFIELD     CLEAR     77  63  61 NW9       29.89S
RICE LAKE      PTCLDY    77  62  60 W7        29.92S
$$

...NORTHEAST IOWA...


CITY           SKY/WX    TMP DP  RH WIND       PRES   REMARKS
WATERLOO       CLOUDY    76  68  76 W3        29.93F
DUBUQUE        CLOUDY    76  67  73 NW7       29.94R
DECORAH        PTCLDY    75  66  73 NW5       29.93R
MASON CITY     CLOUDY    74  65  73 NW9       30.00R
CHARLES CITY   CLOUDY    73  70  88 W5        29.98R
OELWEIN        CLOUDY    75  70  83 NW7       29.95S
$$

...ELSEWHERE IN IOWA...


CITY           SKY/WX    TMP DP  RH WIND       PRES   REMARKS
DES MOINES     CLOUDY    81  67  62 NW6       29.98S
IOWA CITY      PTCLDY    82  68  62 NW12      29.94S
FORT DODGE     CLOUDY    75  66  73 CALM      30.02S
MARSHALLTOWN   CLOUDY    78  70  76 W6        29.97R
CEDAR RAPIDS   PTCLDY    78  69  73 N7        29.93S
$$

...NORTHERN ILLINOIS...


CITY           SKY/WX    TMP DP  RH WIND       PRES   REMARKS
CHICAGO-OHARE  CLOUDY    76  71  85 S10       29.87F
CHICAGO-MIDWAY TSTM      74  65  73 S9        29.89R
MOLINE         MOCLDY    86  68  54 NW17G26   29.91R
ROCKFORD       CLOUDY    87  78  74 W12       29.88R HX 100
PEORIA         CLOUDY    88  82  82 NW3       29.89R HX 108
$$

NOTE: "FAIR" INDICATES FEW OR NO CLOUDS BELOW 12,000 FEET WITH NO
SIGNIFICANT WEATHER AND/OR OBSTRUCTIONS TO VISIBILITY. WIND
SPEEDS ARE IN MILES-PER-HOUR.




USA.gov is the U.S. government's official web portal to all federal, state and local government web resources and services.